Location: DaVinci Observatory
(43.1080°N, 78.6453°W)
Time: 17:31:59
(UTC-05:00)

Vanguard 2 Rocket - Visible Passes

Search period start: 16 December 2017 00:00
Search period end: 26 December 2017 00:00
Orbit: 556 x 3326 km, 32.9° (Epoch: 15 December)

Date Brightness Start Highest point End Pass type
(mag) Time Alt. Az. Time Alt. Az. Time Alt. Az.
16 Dec 9.2 18:58:19 10° SW 19:08:51 48° SSE 19:16:08 33° ESE visible
16 Dec 9.4 21:10:50 10° WSW 21:21:56 55° SSW 21:21:56 55° SSW visible
16 Dec 10.6 23:25:27 10° W 23:27:44 16° W 23:27:44 16° W visible
17 Dec 9.3 17:59:53 10° SW 18:08:47 39° SSE 18:19:54 17° E visible
17 Dec 9.2 20:11:26 10° WSW 20:23:33 58° S 20:25:42 55° SSE visible
17 Dec 10.1 22:25:07 10° W 22:31:30 32° WSW 22:31:30 32° WSW visible
18 Dec 9.4 17:02:01 10° SSW 17:09:16 29° SE 17:20:20 10° E visible
18 Dec 9.1 19:12:24 10° WSW 19:22:51 53° SSE 19:29:29 36° ESE visible
18 Dec 9.5 21:25:15 10° W 21:35:17 50° SW 21:35:17 50° SW visible
18 Dec 10.7 23:40:13 10° W 23:41:05 12° W 23:41:05 12° W visible
19 Dec 9.1 18:13:46 10° SW 18:22:40 45° SSE 18:33:16 19° E visible
19 Dec 9.2 20:25:48 10° WSW 20:37:44 57° S 20:39:04 56° SSE visible
19 Dec 10.2 22:39:43 10° W 22:44:53 26° WSW 22:44:53 26° WSW visible
20 Dec 9.1 17:15:34 10° SSW 17:22:59 36° SSE 17:35:01 10° E visible
20 Dec 9.0 19:26:41 10° WSW 19:37:01 55° S 19:42:53 39° SE visible
20 Dec 9.6 21:39:48 10° W 21:48:42 43° SW 21:48:42 43° SW visible
21 Dec 8.9 18:27:56 10° WSW 18:36:43 50° SSE 18:46:44 22° ESE visible
21 Dec 9.2 20:40:16 10° W 20:51:58 53° S 20:52:32 53° S visible
21 Dec 10.4 22:54:34 10° W 22:58:21 21° WSW 22:58:21 21° WSW visible
22 Dec 8.9 17:29:29 10° SW 17:36:54 42° SSE 17:49:25 10° E visible
22 Dec 9.1 19:41:07 10° WSW 19:51:14 54° S 19:56:26 41° SE visible
22 Dec 9.8 21:54:28 10° W 22:02:15 36° SW 22:02:15 36° SW visible
23 Dec 8.9 18:42:15 10° WSW 18:50:55 51° S 19:00:23 23° ESE visible
23 Dec 9.4 20:54:51 10° W 21:06:10 47° SSW 21:06:12 47° SSW visible
23 Dec 10.6 23:09:52 10° W 23:12:01 15° WSW 23:12:01 15° WSW visible
24 Dec 8.8 17:43:40 10° WSW 17:51:02 46° SSE 18:03:41 10° E visible
24 Dec 9.1 19:55:38 10° WSW 20:05:31 49° S 20:10:12 39° SSE visible
24 Dec 10.0 22:09:25 10° W 22:16:02 28° SW 22:16:02 28° SW visible
25 Dec 8.9 18:56:43 10° WSW 19:05:13 49° S 19:14:17 23° ESE visible
25 Dec 9.6 21:09:38 10° W 21:20:07 38° SSW 21:20:07 38° SSW visible
